Flag for Germany Weather past 2 weeks in Rheinfelden (Baden), Baden-Württemberg, Germany

Now
72 °F

Passing clouds.


Feels Like: 71 °F
Forecast: 69 / 98 °F
Wind: 5 mph from South

Location: Bale-Mulhouse

Current Time: Jul 4, 2015 at 5:37:39 AM

Latest Report: Jul 4, 2015 at 5:00 AM


Visibility: N/A

Pressure: 30.15 "Hg

Humidity: 83%

Dew point: 66 °F

Location of Rheinfelden (Baden)Location

Historic Weather in Rheinfelden (Baden) — Graph

°F

Rheinfelden (Baden) temperature yesterday

Maximum temperature yesterday: 97 °F (at 4:00 PM)
Minimum temperature yesterday: 70 °F (at 4:30 AM)
Average temperature yesterday: 84 °F

Past Weeks' High & Low Weather Summary

 TemperatureHumidityPressure
High97 °F (Jul 2, 3:30 PM)100% (Jun 20, 8:00 AM)30.24 "Hg (Jun 20, 8:00 AM)
Low45 °F (Jun 24, 4:30 AM)26% (Jun 26, 3:00 PM)29.74 "Hg (Jun 22, 9:00 PM)
Average68 °F68%30.11 "Hg
* Reported Jun 19 4:00 AM — Jul 4 4:30 AM, Rheinfelden (Baden), Weather by CustomWeather, © 2015

Note: Actual official high and low records may vary slightly from our data, if they occured in-between our weather recording intervals... More about our weather records

Advertising

Rheinfelden (Baden) weather history for previous 24 hours

 ConditionsComfort  
Time TempWeatherWind HumidityBarometerVisibility
4:30 AM
Sat, Jul 4
70 °FClear.5 mph88%30.15 "Hg10 mi
4:00 AM70 °FPassing clouds.3 mph83%30.15 "HgN/A
3:30 AM70 °FClear.2 mph83%30.15 "Hg10 mi
3:00 AM70 °FClear.No wind88%30.15 "Hg10 mi
2:30 AM68 °FClear.3 mph94%30.15 "Hg10 mi
2:00 AM70 °FClear.2 mph88%30.15 "Hg10 mi
1:30 AM72 °FClear.2 mph83%30.15 "Hg10 mi
1:00 AM72 °FClear.3 mph83%30.15 "Hg10 mi
12:30 AM73 °FClear.3 mph83%30.15 "Hg10 mi
12:00 AM75 °FClear.3 mph78%30.15 "Hg10 mi
11:30 PM
Fri, Jul 3
81 °FClear.2 mph62%30.15 "Hg10 mi
11:00 PM82 °FClear.2 mph58%30.15 "Hg10 mi
10:30 PM84 °FPassing clouds.3 mph55%30.15 "HgN/A
10:00 PM86 °FPassing clouds.5 mph52%30.15 "HgN/A
9:30 PM88 °FSunny.7 mph46%30.15 "Hg10 mi
9:00 PM90 °FPassing clouds.6 mph43%30.15 "HgN/A
8:30 PM91 °FPassing clouds.10 mph41%30.15 "HgN/A
8:00 PM93 °FPassing clouds.3 mph39%30.15 "HgN/A
7:30 PM93 °FPassing clouds.3 mph39%30.15 "HgN/A
7:00 PM95 °FScattered clouds.6 mph36%30.15 "HgN/A
6:30 PM95 °FScattered clouds.6 mph30%30.15 "HgN/A
6:00 PM97 °FPassing clouds.6 mph30%30.15 "HgN/A
5:30 PM97 °FPassing clouds.5 mph32%30.15 "HgN/A
5:00 PM97 °FPassing clouds.6 mph32%30.15 "HgN/A
4:30 PM97 °FPassing clouds.5 mph28%30.18 "HgN/A
4:00 PM97 °FPassing clouds.7 mph30%30.18 "HgN/A
3:30 PM95 °FPassing clouds.5 mph32%30.18 "HgN/A
3:00 PM95 °FPassing clouds.5 mph30%30.18 "HgN/A
2:30 PM95 °FPassing clouds.5 mph34%30.18 "HgN/A
2:00 PM93 °FPassing clouds.7 mph36%30.21 "HgN/A
1:30 PM93 °FSunny.3 mph36%30.21 "Hg10 mi
1:00 PM91 °FPassing clouds.6 mph34%30.21 "HgN/A
12:30 PM91 °FSunny.3 mph41%30.21 "Hg10 mi
12:00 PM91 °FSunny.2 mph38%30.24 "Hg10 mi
11:30 AM90 °FSunny.3 mph41%30.24 "Hg10 mi
11:00 AM88 °FSunny.3 mph40%30.24 "Hg10 mi
10:30 AM86 °FPassing clouds.5 mph43%30.24 "HgN/A
10:00 AM84 °FPassing clouds.5 mph51%30.24 "HgN/A
9:30 AM82 °FPassing clouds.6 mph55%30.24 "HgN/A
9:00 AM81 °FSunny.7 mph58%30.24 "Hg10 mi
8:30 AM79 °FPassing clouds.6 mph65%30.24 "HgN/A
8:00 AM77 °FPassing clouds.5 mph69%30.24 "HgN/A
7:30 AM75 °FPassing clouds.5 mph74%30.24 "HgN/A
7:00 AM72 °FSunny.5 mph78%30.24 "Hg10 mi
6:30 AM72 °FClear.5 mph78%30.21 "Hg10 mi
6:00 AM70 °FClear.3 mph83%30.21 "Hg10 mi
5:30 AM70 °FClear.2 mph83%30.21 "Hg10 mi
5:00 AM72 °FPassing clouds.5 mph78%30.21 "HgN/A
Weather by CustomWeather, © 2015

See weather overviewHow to use our weather pages